Location: Caltech
(34.1382°N, 118.1253°W)
Time: 23:12:23
(UTC-07:00)

Iridium 91 - Visible Passes

Search period start: 23 April 2014 00:00
Search period end: 03 May 2014 00:00
Orbit: 775 x 780 km, 86.4° (Epoch: 23 April)

Date Brightness Start Highest point End Pass type
(mag) Time Alt. Az. Time Alt. Az. Time Alt. Az.
23 Apr 8.2 01:24:05 10° N 01:24:54 15° NNE 01:24:54 15° NNE visible
24 Apr 8.4 00:51:08 10° NNE 00:51:28 11° NNE 00:51:28 11° NNE visible
24 Apr 8.2 02:31:45 10° NNW 02:31:56 11° NNW 02:31:56 11° NNW visible
25 Apr 8.1 01:57:41 10° NNW 01:58:30 15° NNW 01:58:30 15° NNW visible
26 Apr 8.1 01:24:03 10° N 01:25:05 16° N 01:25:05 16° N visible
27 Apr 8.2 00:50:49 10° NNE 00:51:39 14° NNE 00:51:39 14° NNE visible
28 Apr 8.4 00:18:06 10° NNE 00:18:14 11° NNE 00:18:14 11° NNE visible
28 Apr 8.1 01:58:02 10° NNW 01:58:42 13° NNW 01:58:42 13° NNW visible
29 Apr 8.0 01:24:09 10° N 01:25:17 17° N 01:25:17 17° N visible
30 Apr 8.0 00:50:40 10° N 00:51:52 17° N 00:51:52 17° N visible
01 May 8.1 00:17:36 10° NNE 00:18:28 14° NNE 00:18:28 14° NNE visible
01 May 8.2 01:58:34 10° NNW 01:58:56 12° NNW 01:58:56 12° NNW visible
02 May 8.0 01:24:22 10° NNW 01:25:31 17° NNW 01:25:31 17° NNW visible
